Date,TemperatureHighF,TemperatureAvgF,TemperatureLowF,DewpointHighF,DewpointAvgF,DewpointLowF,HumidityHigh,HumidityAvg,HumidityLow,PressureMaxIn,PressureMinIn,WindSpeedMaxMPH,WindSpeedAvgMPH,GustSpeedMaxMPH,PrecipitationSumIn
2013-1-1,28.0,19.3,6.0,23.0,13.0,0.0,95,77,53,29.88,29.72,10,3,16,0.00
2013-1-2,24.0,10.2,4.0,11.0,3.9,-2.0,83,76,57,30.04,29.85,7,4,8,0.39
2013-1-3,25.0,14.4,5.0,17.0,8.2,1.0,93,77,53,30.07,29.88,8,4,15,0.39
2013-1-4,34.0,23.0,19.0,19.0,15.9,11.0,90,75,53,29.91,29.78,11,6,23,0.00
2013-1-5,33.0,22.7,14.0,22.0,17.2,12.0,97,80,60,30.19,29.85,10,3,23,0.00
2013-1-6,40.0,26.1,18.0,27.0,21.7,16.0,100,84,58,30.10,29.85,9,3,15,0.00
2013-1-7,40.0,26.5,14.0,26.0,19.1,11.0,96,75,49,30.29,29.91,8,4,17,0.00
2013-1-8,42.0,27.6,19.0,25.0,18.5,14.0,92,71,43,30.32,30.16,2,2,2,0.00
2013-1-9,40.0,30.1,18.0,32.0,22.9,15.0,89,75,52,30.32,29.97,13,2,25,0.00
2013-1-10,43.0,29.6,19.0,25.0,20.3,16.0,91,69,49,30.51,30.13,10,4,26,0.00
2013-1-11,37.0,30.0,19.0,35.0,22.2,11.0,100,75,40,30.45,30.07,10,4,17,0.04
2013-1-12,57.0,41.7,33.0,50.0,39.9,33.0,100,94,69,30.13,30.04,5,2,7,0.04
2013-1-13,53.0,44.1,36.0,52.0,43.8,36.0,100,99,91,30.13,29.97,12,2,17,0.00
2013-1-14,49.0,38.2,24.0,49.0,34.6,18.0,100,87,57,30.26,29.91,9,3,21,0.08
2013-1-15,33.0,23.8,18.0,21.0,18.0,16.0,91,79,59,30.32,30.16,4,1,6,0.04
2013-1-16,31.0,24.7,20.0,29.0,23.5,17.0,100,95,82,30.19,29.78,6,2,11,0.25
2013-1-17,32.0,22.2,13.0,25.0,17.9,7.0,100,83,71,30.04,29.78,10,3,17,0.04
2013-1-18,22.0,11.5,1.0,7.0,1.2,-5.0,78,63,44,30.29,29.94,7,3,18,0.00
2013-1-19,42.0,31.7,16.0,23.0,15.4,4.0,59,51,43,30.16,29.78,14,6,23,0.00
2013-1-20,41.0,29.8,12.0,29.0,17.0,3.0,87,60,39,29.91,29.53,18,8,31,0.00
2013-1-21,19.0,12.2,6.0,12.0,6.5,1.0,96,79,53,29.94,29.66,8,4,15,0.00
2013-1-22,15.0,3.9,-5.0,7.0,-8.1,-23.0,88,60,40,29.94,29.66,10,4,23,0.00
2013-1-23,14.0,-2.0,-12.0,-4.0,-19.3,-28.0,47,42,40,30.01,29.91,9,3,15,0.00
2013-1-24,19.0,0.3,-13.0,2.0,-15.9,-29.0,52,45,44,30.19,29.91,10,4,20,0.00
2013-1-25,21.0,6.7,-3.0,2.0,-9.5,-19.0,54,46,42,30.23,29.91,8,2,11,0.00
2013-1-26,23.0,8.5,-2.0,6.0,-6.3,-16.0,61,51,42,30.16,29.85,8,3,20,0.00
2013-1-27,33.0,14.9,4.0,10.0,-1.3,-9.0,80,49,32,30.35,30.16,6,3,17,0.00
2013-1-28,31.0,21.1,8.0,31.0,15.1,-7.0,100,79,49,30.35,29.88,9,3,13,0.08
2013-1-29,43.0,36.1,31.0,39.0,34.8,31.0,100,96,75,30.10,29.91,7,3,13,0.25
2013-1-30,54.0,47.6,40.0,53.0,47.5,40.0,100,99,94,30.01,29.37,18,9,32,0.21
2013-1-31,48.0,25.6,15.0,48.0,15.1,4.0,100,65,51,29.59,29.18,19,10,33,0.71